User: anonymous   Login
Location: Raven Hill Discovery Center
(45.1336°N, 85.0553°W)
Time: 14:06:50
(UTC-05:00)
Language:

Cosmos 1470 - Orbit

View from above orbital plane
View from above orbital plane
View from above satellite
View from above satellite

Ground track
Ground track

The orbit data is extracted from the following two-line orbital elements,

1 14147U 83061A   17056.82358909 +.00000356 +00000-0 +19740-4 0  9997
2 14147 082.4854 148.3333 0014376 284.2224 075.7409 15.10531002587729
Epoch (UTC): 25 February 2017 19:45:58
Eccentricity: 0.0014376
inclination: 82.4854°
perigee height: 524 km
apogee height: 544 km
right ascension of ascending node: 148.3333°
argument of perigee: 284.2224°
revolutions per day: 15.10531002
mean anomaly at epoch: 75.7409°
orbit number at epoch: 58772

The dashed part of the orbit path shows where the satellite is in the earth's shadow,  

DLR